| time (UTC) | temp F | wind direction | speed MPH | gust MPH | rain 1hr in | rain 24hr in | rain mn in | humidity % | barometer mb |
| 20260904073043 | 71 | 0 | 0.0 | 0.0 | 0.00 | 0.35 | 0.00 | 85 | 1013.5 |
| 20260904071543 | 71 | 0 | 0.0 | 1.0 | 0.00 | 0.35 | 0.00 | 85 | 1013.7 |
| 20260904070046 | 71 | 0 | 0.0 | 1.0 | 0.00 | 0.35 | 0.00 | 85 | 1014.1 |
| 20260904064543 | 72 | 60 | 3.0 | 7.0 | 0.00 | 0.35 | 0.00 | 84 | 1014.4 |
| 20260904063043 | 72 | 283 | 1.0 | 5.0 | 0.00 | 0.35 | 0.00 | 85 | 1013.8 |
| 20260904061552 | 71 | 0 | 1.0 | 5.0 | 0.00 | 0.35 | 0.00 | 85 | 1014.1 |
| 20260904060044 | 71 | 75 | 0.0 | 4.0 | 0.00 | 0.35 | 0.00 | 85 | 1014.1 |
| 20260904054544 | 71 | 73 | 1.0 | 3.0 | 0.00 | 0.35 | 0.00 | 86 | 1013.9 |
| 20260904053044 | 72 | 65 | 1.0 | 2.0 | 0.00 | 0.35 | 0.00 | 86 | 1014.6 |
| 20260904051542 | 72 | 122 | 0.0 | 2.0 | 0.00 | 0.35 | 0.00 | 86 | 1014.3 |
| 20260904050043 | 72 | 0 | 0.0 | 1.0 | 0.00 | 0.35 | 0.00 | 85 | 1014.4 |
| 20260904044555 | 72 | 0 | 0.0 | 4.0 | 0.00 | 0.35 | 0.35 | 85 | 1014.4 |
| 20260904043059 | 72 | 122 | 0.0 | 2.0 | 0.00 | 0.35 | 0.35 | 85 | 1014.9 |
| 20260904041545 | 72 | 0 | 0.0 | 1.0 | 0.00 | 0.35 | 0.35 | 85 | 1014.4 |
| 20260904040042 | 71 | 0 | 0.0 | 0.0 | 0.00 | 0.35 | 0.35 | 85 | 1014.8 |
| 20260904034549 | 72 | 122 | 0.0 | 1.0 | 0.00 | 0.35 | 0.35 | 86 | 1014.6 |
| 20260904033047 | 72 | 0 | 0.0 | 1.0 | 0.00 | 0.35 | 0.35 | 86 | 1015.0 |
| 20260904031544 | 72 | 0 | 0.0 | 1.0 | 0.00 | 0.35 | 0.35 | 86 | 1015.0 |
| 20260904030043 | 72 | 0 | 0.0 | 1.0 | 0.00 | 0.35 | 0.35 | 87 | 1015.0 |
| 20260904024550 | 72 | 0 | 0.0 | 2.0 | 0.00 | 0.35 | 0.35 | 87 | 1014.7 |
| 20260904023046 | 72 | 0 | 0.0 | 1.0 | 0.00 | 0.35 | 0.35 | 87 | 1014.9 |
| 20260904021544 | 72 | 124 | 0.0 | 2.0 | 0.00 | 0.35 | 0.35 | 87 | 1014.8 |
| 20260904020044 | 72 | 0 | 0.0 | 2.0 | 0.00 | 0.35 | 0.35 | 87 | 1014.7 |
| 20260904014553 | 72 | 97 | 0.0 | 1.0 | 0.00 | 0.35 | 0.35 | 87 | 1014.5 |
| 20260904013046 | 72 | 101 | 0.0 | 1.0 | 0.00 | 0.35 | 0.35 | 87 | 1014.5 |
| 20260904011550 | 72 | 101 | 0.0 | 1.0 | 0.00 | 0.35 | 0.35 | 87 | 1014.3 |
| 20260904010046 | 73 | 0 | 0.0 | 1.0 | 0.00 | 0.35 | 0.35 | 86 | 1014.0 |
| 20260904004546 | 73 | 0 | 0.0 | 0.0 | 0.00 | 0.35 | 0.35 | 86 | 1013.8 |
| 20260904003046 | 74 | 0 | 0.0 | 1.0 | 0.00 | 0.35 | 0.35 | 84 | 1013.7 |
| 20260904001546 | 74 | 0 | 0.0 | 2.0 | 0.00 | 0.35 | 0.35 | 83 | 1013.8 |
| 20260904000049 | 75 | 71 | 2.0 | 5.0 | 0.00 | 0.35 | 0.35 | 83 | 1013.7 |
| 20260903234544 | 75 | 101 | 1.0 | 5.0 | 0.00 | 0.35 | 0.35 | 81 | 1013.7 |
| 20260903233046 | 75 | 69 | 2.0 | 6.0 | 0.00 | 0.35 | 0.35 | 80 | 1013.9 |
| 20260903231548 | 75 | 133 | 2.0 | 7.0 | 0.00 | 0.35 | 0.35 | 80 | 1013.6 |
| 20260903230049 | 76 | 65 | 2.0 | 9.0 | 0.00 | 0.35 | 0.35 | 80 | 1013.8 |
| 20260903224543 | 76 | 200 | 2.0 | 7.0 | 0.00 | 0.35 | 0.35 | 81 | 1013.9 |
| 20260903223047 | 76 | 161 | 2.0 | 6.0 | 0.00 | 0.35 | 0.35 | 80 | 1013.6 |
| 20260903221544 | 76 | 117 | 2.0 | 5.0 | 0.00 | 0.35 | 0.35 | 80 | 1013.8 |
| 20260903220047 | 76 | 94 | 1.0 | 5.0 | 0.00 | 0.35 | 0.35 | 80 | 1013.8 |
| 20260903214550 | 76 | 105 | 3.0 | 6.0 | 0.00 | 0.35 | 0.35 | 79 | 1013.8 |
| 20260903213046 | 76 | 68 | 4.0 | 9.0 | 0.00 | 0.35 | 0.35 | 77 | 1013.8 |
| 20260903211543 | 76 | 63 | 3.0 | 8.0 | 0.00 | 0.35 | 0.35 | 78 | 1013.7 |
| 20260903210045 | 76 | 73 | 3.0 | 5.0 | 0.00 | 0.35 | 0.35 | 83 | 1013.8 |
| 20260903204550 | 75 | 80 | 2.0 | 7.0 | 0.00 | 0.35 | 0.35 | 85 | 1013.9 |
| 20260903203045 | 76 | 68 | 4.0 | 10.0 | 0.00 | 0.35 | 0.35 | 83 | 1014.0 |
| 20260903201555 | 78 | 0 | 0.0 | 0.0 | 0.00 | 0.35 | 0.35 | 85 | 1013.9 |
| 20260903200043 | 79 | 0 | 0.0 | 1.0 | 0.00 | 0.35 | 0.35 | 85 | 1013.6 |
| 20260903194542 | 78 | 0 | 0.0 | 0.0 | 0.00 | 0.35 | 0.35 | 86 | 1013.4 |
| 20260903193046 | 78 | 0 | 0.0 | 0.0 | 0.00 | 0.35 | 0.35 | 85 | 1013.7 |
| 20260903191551 | 78 | 0 | 0.0 | 1.0 | 0.00 | 0.35 | 0.35 | 85 | 1014.0 |
| 20260903190044 | 77 | 0 | 0.0 | 2.0 | 0.00 | 0.35 | 0.35 | 85 | 1014.1 |
| 20260903184556 | 76 | 0 | 0.0 | 2.0 | 0.00 | 0.35 | 0.35 | 85 | 1013.8 |
| 20260903183045 | 74 | 0 | 0.0 | 1.0 | 0.08 | 0.35 | 0.35 | 83 | 1013.8 |
| 20260903181549 | 73 | 296 | 1.0 | 3.0 | 0.08 | 0.35 | 0.35 | 84 | 1014.7 |
| 20260903180051 | 73 | 34 | 2.0 | 4.0 | 0.16 | 0.35 | 0.35 | 83 | 1014.4 |
| 20260903174544 | 72 | 153 | 1.0 | 6.0 | 0.16 | 0.35 | 0.35 | 84 | 1013.7 |
| 20260903173050 | 72 | 0 | 0.0 | 2.0 | 0.09 | 0.27 | 0.27 | 84 | 1013.8 |
| 20260903171548 | 71 | 127 | 2.0 | 4.0 | 0.13 | 0.27 | 0.27 | 85 | 1014.3 |
| 20260903170045 | 71 | 214 | 1.0 | 3.0 | 0.10 | 0.19 | 0.19 | 85 | 1015.7 |
| 20260903164555 | 70 | 212 | 1.0 | 4.0 | 0.13 | 0.19 | 0.19 | 86 | 1016.3 |
| 20260903163049 | 71 | 199 | 2.0 | 3.0 | 0.13 | 0.18 | 0.18 | 86 | 1016.9 |
| 20260903161551 | 71 | 247 | 4.0 | 10.0 | 0.09 | 0.14 | 0.14 | 87 | 1016.9 |
| 20260903160044 | 70 | 267 | 5.0 | 13.0 | 0.04 | 0.09 | 0.09 | 87 | 1016.4 |
| 20260903154550 | 71 | 269 | 4.0 | 11.0 | 0.01 | 0.06 | 0.06 | 85 | 1016.0 |
| 20260903153043 | 73 | 317 | 4.0 | 9.0 | 0.00 | 0.05 | 0.05 | 83 | 1015.4 |
| 20260903151543 | 73 | 300 | 4.0 | 10.0 | 0.00 | 0.05 | 0.05 | 79 | 1015.5 |
| 20260903150049 | 73 | 304 | 3.0 | 8.0 | 0.00 | 0.05 | 0.05 | 77 | 1015.3 |
| 20260903144545 | 74 | 48 | 5.0 | 11.0 | 0.00 | 0.05 | 0.05 | 74 | 1014.8 |
| 20260903143104 | 74 | 318 | 6.0 | 16.0 | 0.00 | 0.05 | 0.05 | 71 | 1014.7 |
| 20260903141542 | 72 | 300 | 5.0 | 22.0 | 0.00 | 0.05 | 0.05 | 76 | 1015.4 |
| 20260903140044 | 74 | 14 | 10.0 | 21.0 | 0.00 | 0.05 | 0.05 | 74 | 1014.9 |
| 20260903134548 | 73 | 297 | 10.0 | 19.0 | 0.00 | 0.05 | 0.05 | 81 | 1015.6 |
| 20260903133046 | 75 | 23 | 5.0 | 16.0 | 0.01 | 0.05 | 0.05 | 80 | 1015.1 |
| 20260903131602 | 76 | 295 | 6.0 | 10.0 | 0.01 | 0.05 | 0.05 | 86 | 1015.0 |
| 20260903130044 | 76 | 0 | 0.0 | 3.0 | 0.01 | 0.05 | 0.05 | 86 | 1013.5 |
| 20260903124546 | 76 | 231 | 0.0 | 2.0 | 0.01 | 0.05 | 0.05 | 83 | 1013.1 |
| 20260903123048 | 74 | 0 | 0.0 | 0.0 | 0.00 | 0.04 | 0.04 | 81 | 1013.3 |
| 20260903121543 | 74 | 0 | 0.0 | 0.0 | 0.00 | 0.04 | 0.04 | 81 | 1013.4 |
| 20260903120042 | 73 | 0 | 0.0 | 0.0 | 0.00 | 0.04 | 0.04 | 81 | 1013.3 |
| 20260903114548 | 73 | 0 | 0.0 | 0.0 | 0.00 | 0.04 | 0.04 | 82 | 1013.2 |
| 20260903113045 | 73 | 0 | 0.0 | 0.0 | 0.00 | 0.04 | 0.04 | 82 | 1013.4 |
| 20260903111541 | 72 | 0 | 0.0 | 0.0 | 0.00 | 0.04 | 0.04 | 82 | 1013.5 |
| 20260903110046 | 72 | 0 | 0.0 | 0.0 | 0.00 | 0.04 | 0.04 | 82 | 1013.5 |
| 20260903104543 | 72 | 0 | 0.0 | 0.0 | 0.00 | 0.04 | 0.04 | 83 | 1013.3 |
| 20260903103044 | 72 | 0 | 0.0 | 0.0 | 0.00 | 0.04 | 0.04 | 83 | 1013.4 |
| 20260903101543 | 72 | 0 | 0.0 | 0.0 | 0.00 | 0.04 | 0.04 | 84 | 1013.5 |
| 20260903100048 | 72 | 0 | 0.0 | 0.0 | 0.00 | 0.04 | 0.04 | 84 | 1013.5 |
| 20260903094546 | 72 | 0 | 0.0 | 0.0 | 0.00 | 0.04 | 0.04 | 84 | 1013.6 |
| 20260903093045 | 72 | 0 | 0.0 | 0.0 | 0.00 | 0.04 | 0.04 | 84 | 1013.6 |
| 20260903091540 | 73 | 0 | 0.0 | 0.0 | 0.00 | 0.04 | 0.04 | 84 | 1013.6 |
| 20260903090046 | 73 | 0 | 0.0 | 0.0 | 0.00 | 0.04 | 0.04 | 85 | 1013.4 |
| 20260903084543 | 73 | 0 | 0.0 | 0.0 | 0.00 | 0.04 | 0.04 | 85 | 1013.5 |
| 20260903083051 | 73 | 0 | 0.0 | 0.0 | 0.00 | 0.04 | 0.04 | 85 | 1013.5 |
| 20260903081547 | 73 | 0 | 0.0 | 0.0 | 0.00 | 0.04 | 0.04 | 85 | 1013.4 |
| 20260903080051 | 73 | 0 | 0.0 | 0.0 | 0.04 | 0.04 | 0.04 | 86 | 1013.6 |
| 20260903074543 | 74 | 0 | 0.0 | 0.0 | 0.04 | 0.04 | 0.04 | 86 | 1013.5 |